LVFVY SADF-SADF

Flight info

Callsign LVFVY
Flight time 1h 16m
Altitude 29000
Route LANDA DCT GUA DCT DALAB DCT PAGON
Aircraft C510/L-SDFGRWY/LB1

Departure

Time 2026-04-27 19:45
Airport San Fernando Airport (SADF)

Arrival

Time 2026-04-27 21:01
Airport San Fernando Airport (SADF)
Time Latitude Longitude Altitude Speed Heading
2026-04-27 19:30 -34.45477 -58.58235 23 ft 0 kts 328°
2026-04-27 19:40 -34.45477 -58.58236 23 ft 1 kts 328°
2026-04-27 19:40 -34.45452 -58.58250 23 ft 2 kts 22°
2026-04-27 19:40 -34.45434 -58.58219 23 ft 8 kts 61°
2026-04-27 19:40 -34.45398 -58.58136 23 ft 12 kts 63°
2026-04-27 19:41 -34.45360 -58.58044 23 ft 12 kts 61°
2026-04-27 19:41 -34.45323 -58.57981 23 ft 3 kts
2026-04-27 19:41 -34.45296 -58.57994 23 ft 4 kts 327°
2026-04-27 19:41 -34.45272 -58.58012 23 ft 4 kts 332°
2026-04-27 19:42 -34.45248 -58.58029 23 ft 4 kts 326°
2026-04-27 19:42 -34.45227 -58.58044 23 ft 3 kts 330°
2026-04-27 19:42 -34.45186 -58.58073 23 ft 13 kts 328°
2026-04-27 19:42 -34.45075 -58.58154 23 ft 23 kts 329°
2026-04-27 19:43 -34.44976 -58.58226 23 ft 25 kts 328°
2026-04-27 19:43 -34.44841 -58.58348 23 ft 2 kts 319°
2026-04-27 19:43 -34.44838 -58.58361 24 ft 1 kts 231°
2026-04-27 19:43 -34.44839 -58.58362 24 ft 0 kts 223°
2026-04-27 19:44 -34.44922 -58.58460 26 ft 48 kts 224°
2026-04-27 19:44 -34.45316 -58.58926 54 ft 103 kts 224°
2026-04-27 19:45 -34.45904 -58.59615 383 ft 133 kts 224°
2026-04-27 19:45 -34.46624 -58.60452 796 ft 155 kts 225°
2026-04-27 19:45 -34.47491 -58.61381 1188 ft 176 kts 223°
2026-04-27 19:45 -34.48214 -58.62633 1576 ft 192 kts 253°
2026-04-27 19:46 -34.48092 -58.64283 1966 ft 209 kts 291°
2026-04-27 19:46 -34.47142 -58.65651 2354 ft 223 kts 318°
2026-04-27 19:46 -34.45722 -58.66394 2952 ft 223 kts 349°
2026-04-27 19:46 -34.44250 -58.66283 4028 ft 200 kts
2026-04-27 19:47 -34.42944 -58.66092 5075 ft 185 kts
2026-04-27 19:47 -34.41645 -58.65886 5753 ft 190 kts
2026-04-27 19:47 -34.40343 -58.65655 6473 ft 189 kts
2026-04-27 19:47 -34.39023 -58.65442 7121 ft 192 kts
2026-04-27 19:48 -34.37684 -58.65216 7734 ft 196 kts
2026-04-27 19:48 -34.36315 -58.64993 8328 ft 201 kts
2026-04-27 19:48 -34.34917 -58.64760 8910 ft 205 kts
2026-04-27 19:48 -34.33492 -58.64529 9486 ft 209 kts
2026-04-27 19:49 -34.32035 -58.64287 10024 ft 215 kts
2026-04-27 19:49 -34.30484 -58.64038 10076 ft 240 kts
2026-04-27 19:49 -34.28759 -58.63757 10159 ft 255 kts
2026-04-27 19:49 -34.27033 -58.63456 10737 ft 243 kts
2026-04-27 19:50 -34.25446 -58.63191 11660 ft 219 kts
2026-04-27 19:50 -34.23941 -58.62948 12225 ft 219 kts
2026-04-27 19:50 -34.22416 -58.62706 12719 ft 222 kts
2026-04-27 19:50 -34.20872 -58.62450 13232 ft 224 kts
2026-04-27 19:51 -34.19321 -58.62196 13733 ft 223 kts
2026-04-27 19:51 -34.17784 -58.61940 13988 ft 229 kts
2026-04-27 19:51 -34.16208 -58.61685 14484 ft 228 kts 360°
2026-04-27 19:51 -34.14625 -58.61424 14909 ft 230 kts 360°
2026-04-27 19:52 -34.13025 -58.61164 15344 ft 233 kts 359°
2026-04-27 19:52 -34.11413 -58.60897 15770 ft 235 kts 359°
2026-04-27 19:52 -34.09787 -58.60633 16198 ft 237 kts 359°
2026-04-27 19:52 -34.08142 -58.60362 16625 ft 239 kts 359°
2026-04-27 19:53 -34.04839 -58.59823 17473 ft 243 kts 359°
2026-04-27 19:53 -34.03150 -58.59544 17904 ft 245 kts 359°
2026-04-27 19:53 -34.01452 -58.59270 18326 ft 247 kts 359°
2026-04-27 19:54 -33.99734 -58.58986 18697 ft 249 kts 359°
2026-04-27 19:54 -33.98010 -58.58707 19072 ft 251 kts 358°
2026-04-27 19:54 -33.96272 -58.58420 19447 ft 253 kts 358°
2026-04-27 19:54 -33.94522 -58.58136 19834 ft 254 kts 358°
2026-04-27 19:55 -33.92762 -58.57848 20219 ft 256 kts 358°
2026-04-27 19:55 -33.90994 -58.57567 20594 ft 256 kts 356°
2026-04-27 19:55 -33.89265 -58.57606 20937 ft 250 kts 345°
2026-04-27 19:55 -33.87509 -58.57706 21324 ft 254 kts 348°
2026-04-27 19:56 -33.85737 -58.57742 21710 ft 255 kts 348°
2026-04-27 19:56 -33.83956 -58.57822 22092 ft 256 kts 347°
2026-04-27 19:56 -33.82162 -58.57908 22478 ft 258 kts 347°
2026-04-27 19:56 -33.80361 -58.57986 22862 ft 260 kts 347°
2026-04-27 19:57 -33.78566 -58.58065 23249 ft 262 kts 347°
2026-04-27 19:57 -33.76741 -58.58142 23635 ft 263 kts 347°
2026-04-27 19:57 -33.74903 -58.58224 23967 ft 265 kts 347°
2026-04-27 19:57 -33.73059 -58.58302 24309 ft 266 kts 347°
2026-04-27 19:58 -33.71201 -58.58385 24646 ft 267 kts 346°
2026-04-27 19:58 -33.69336 -58.58465 24985 ft 269 kts 346°
2026-04-27 19:58 -33.67460 -58.58548 25329 ft 270 kts 346°
2026-04-27 19:58 -33.65575 -58.58629 25651 ft 271 kts 346°
2026-04-27 19:59 -33.63683 -58.58712 25989 ft 273 kts 346°
2026-04-27 19:59 -33.61782 -58.58794 26316 ft 274 kts 346°
2026-04-27 19:59 -33.59874 -58.58876 26627 ft 275 kts 346°
2026-04-27 19:59 -33.57957 -58.58962 26941 ft 276 kts 346°
2026-04-27 20:00 -33.56029 -58.59043 27249 ft 278 kts 346°
2026-04-27 20:00 -33.54095 -58.59129 27552 ft 279 kts 346°
2026-04-27 20:00 -33.52150 -58.59211 27852 ft 280 kts 345°
2026-04-27 20:00 -33.50217 -58.59296 28143 ft 281 kts 345°
2026-04-27 20:01 -33.48257 -58.59381 28434 ft 282 kts 345°
2026-04-27 20:01 -33.46283 -58.59466 28714 ft 283 kts 345°
2026-04-27 20:01 -33.44307 -58.59553 28983 ft 285 kts 345°
2026-04-27 20:01 -33.42308 -58.59640 29103 ft 291 kts 345°
2026-04-27 20:02 -33.38116 -58.59827 29106 ft 310 kts 346°
2026-04-27 20:02 -33.33733 -58.60012 29116 ft 324 kts 347°
2026-04-27 20:03 -33.29146 -58.60210 29118 ft 335 kts 347°
2026-04-27 20:03 -33.24426 -58.60412 29118 ft 344 kts 347°
2026-04-27 20:04 -33.19599 -58.60620 29116 ft 349 kts 348°
2026-04-27 20:04 -33.14713 -58.60828 29117 ft 353 kts 348°
2026-04-27 20:05 -33.09820 -58.61037 29113 ft 355 kts 348°
2026-04-27 20:05 -33.04866 -58.61249 29116 ft 357 kts 348°
2026-04-27 20:06 -32.99902 -58.61498 29105 ft 355 kts 346°
2026-04-27 20:06 -32.94973 -58.61930 29113 ft 356 kts 346°
2026-04-27 20:07 -32.90029 -58.62338 29107 ft 356 kts 346°
2026-04-27 20:07 -32.85079 -58.62756 29108 ft 357 kts 346°
2026-04-27 20:08 -32.80127 -58.63171 29113 ft 357 kts 346°
2026-04-27 20:08 -32.75175 -58.63587 29112 ft 356 kts 347°
2026-04-27 20:09 -32.70227 -58.64003 29109 ft 356 kts 347°
2026-04-27 20:09 -32.65281 -58.64418 29115 ft 356 kts 347°
2026-04-27 20:10 -32.60366 -58.64830 29115 ft 356 kts 347°
2026-04-27 20:10 -32.55425 -58.65242 29119 ft 355 kts 347°
2026-04-27 20:11 -32.50491 -58.65653 29122 ft 355 kts 347°
2026-04-27 20:11 -32.45552 -58.66065 29117 ft 355 kts 347°
2026-04-27 20:12 -32.41459 -58.66407 29125 ft 355 kts 347°
2026-04-27 20:12 -32.35726 -58.66884 29123 ft 355 kts 347°
2026-04-27 20:13 -32.30767 -58.66856 29122 ft 370 kts
2026-04-27 20:13 -32.28369 -58.65626 29119 ft 383 kts 26°
2026-04-27 20:13 -32.26365 -58.63499 29119 ft 392 kts 48°
2026-04-27 20:14 -32.25033 -58.60685 29118 ft 395 kts 70°
2026-04-27 20:14 -32.24554 -58.57516 29122 ft 391 kts 92°
2026-04-27 20:14 -32.24971 -58.54396 29122 ft 380 kts 114°
2026-04-27 20:14 -32.26164 -58.51677 29120 ft 367 kts 134°
2026-04-27 20:15 -32.27902 -58.49627 29118 ft 351 kts 152°
2026-04-27 20:15 -32.29997 -58.48309 29121 ft 335 kts 169°
2026-04-27 20:15 -32.32223 -58.47761 29121 ft 321 kts 184°
2026-04-27 20:15 -32.34440 -58.47591 29118 ft 320 kts 185°
2026-04-27 20:16 -32.38885 -58.47222 29125 ft 320 kts 185°
2026-04-27 20:16 -32.43334 -58.46856 29128 ft 319 kts 185°
2026-04-27 20:17 -32.45490 -58.47069 29127 ft 305 kts 201°
2026-04-27 20:17 -32.47450 -58.47917 29123 ft 296 kts 213°
2026-04-27 20:17 -32.49125 -58.49280 29121 ft 290 kts 225°
2026-04-27 20:17 -32.50044 -58.50418 29122 ft 287 kts 233°
2026-04-27 20:18 -32.51350 -58.53115 29124 ft 285 kts 249°
2026-04-27 20:18 -32.51820 -58.55397 29120 ft 287 kts 261°
2026-04-27 20:18 -32.51810 -58.57773 29117 ft 291 kts 272°
2026-04-27 20:18 -32.51298 -58.60122 29116 ft 299 kts 285°
2026-04-27 20:19 -32.50278 -58.62299 29114 ft 309 kts 298°
2026-04-27 20:19 -32.48755 -58.64162 29117 ft 321 kts 312°
2026-04-27 20:19 -32.46789 -58.65520 29120 ft 336 kts 328°
2026-04-27 20:19 -32.44467 -58.66199 29120 ft 352 kts 345°
2026-04-27 20:20 -32.39560 -58.66580 29119 ft 354 kts 347°
2026-04-27 20:20 -32.34648 -58.66978 29123 ft 354 kts 347°
2026-04-27 20:21 -32.29699 -58.66433 29121 ft 375 kts 15°
2026-04-27 20:21 -32.27421 -58.64854 29123 ft 384 kts 31°
2026-04-27 20:21 -32.25479 -58.62717 29119 ft 391 kts 49°
2026-04-27 20:22 -32.24187 -58.59891 29117 ft 394 kts 71°
2026-04-27 20:22 -32.23751 -58.56726 29119 ft 390 kts 93°
2026-04-27 20:22 -32.24215 -58.53624 29121 ft 379 kts 115°
2026-04-27 20:22 -32.25494 -58.50979 29117 ft 363 kts 137°
2026-04-27 20:23 -32.27352 -58.49071 29121 ft 347 kts 155°
2026-04-27 20:23 -32.29483 -58.47889 29117 ft 332 kts 172°
2026-04-27 20:23 -32.31708 -58.47451 29119 ft 318 kts 187°
2026-04-27 20:23 -32.33873 -58.47674 29120 ft 309 kts 197°
2026-04-27 20:24 -32.38113 -58.48406 29124 ft 311 kts 195°
2026-04-27 20:24 -32.42404 -58.49028 29128 ft 311 kts 195°
2026-04-27 20:25 -32.46693 -58.49684 29137 ft 311 kts 195°
2026-04-27 20:25 -32.50989 -58.50331 29132 ft 311 kts 195°
2026-04-27 20:26 -32.55282 -58.50982 29135 ft 311 kts 195°
2026-04-27 20:26 -32.59572 -58.51633 29132 ft 311 kts 195°
2026-04-27 20:27 -32.63859 -58.52284 29128 ft 310 kts 195°
2026-04-27 20:27 -32.68143 -58.52935 29127 ft 310 kts 195°
2026-04-27 20:28 -32.72423 -58.53587 29123 ft 310 kts 195°
2026-04-27 20:28 -32.75972 -58.54128 29122 ft 309 kts 196°
2026-04-27 20:29 -32.80937 -58.54884 29037 ft 311 kts 196°
2026-04-27 20:29 -32.83106 -58.55219 28765 ft 317 kts 195°
2026-04-27 20:29 -32.85306 -58.55554 28493 ft 321 kts 195°
2026-04-27 20:30 -32.87534 -58.55892 28235 ft 323 kts 195°
2026-04-27 20:30 -32.89767 -58.56231 27969 ft 324 kts 195°
2026-04-27 20:30 -32.92014 -58.56576 27715 ft 325 kts 195°
2026-04-27 20:30 -32.93532 -58.56807 27543 ft 325 kts 195°
2026-04-27 20:31 -32.95751 -58.57146 27288 ft 325 kts 195°
2026-04-27 20:31 -32.97996 -58.57491 27030 ft 326 kts 195°
2026-04-27 20:31 -33.00248 -58.57834 26786 ft 325 kts 195°
2026-04-27 20:31 -33.02496 -58.58180 26540 ft 325 kts 195°
2026-04-27 20:32 -33.04740 -58.58523 26294 ft 325 kts 195°
2026-04-27 20:32 -33.06975 -58.58866 26053 ft 324 kts 195°
2026-04-27 20:32 -33.09213 -58.59209 25808 ft 324 kts 195°
2026-04-27 20:32 -33.11440 -58.59550 25602 ft 323 kts 195°
2026-04-27 20:33 -33.13682 -58.59898 25204 ft 327 kts 194°
2026-04-27 20:33 -33.15952 -58.60247 24772 ft 331 kts 194°
2026-04-27 20:33 -33.18241 -58.60598 24332 ft 332 kts 194°
2026-04-27 20:33 -33.20539 -58.60950 23894 ft 333 kts 194°
2026-04-27 20:34 -33.22838 -58.61303 23423 ft 332 kts 194°
2026-04-27 20:34 -33.25098 -58.61651 22976 ft 330 kts 194°
2026-04-27 20:34 -33.27370 -58.62000 22538 ft 328 kts 194°
2026-04-27 20:34 -33.29628 -58.62349 22109 ft 326 kts 194°
2026-04-27 20:35 -33.31873 -58.62695 21678 ft 324 kts 194°
2026-04-27 20:35 -33.34106 -58.63041 21251 ft 322 kts 194°
2026-04-27 20:35 -33.36326 -58.63383 20823 ft 321 kts 193°
2026-04-27 20:35 -33.38537 -58.63724 20404 ft 319 kts 193°
2026-04-27 20:36 -33.40739 -58.64065 19983 ft 318 kts 193°
2026-04-27 20:36 -33.42925 -58.64402 19566 ft 316 kts 193°
2026-04-27 20:36 -33.45097 -58.64739 19143 ft 313 kts 193°
2026-04-27 20:36 -33.47229 -58.65068 18738 ft 311 kts 193°
2026-04-27 20:37 -33.49367 -58.65400 18317 ft 309 kts 193°
2026-04-27 20:37 -33.51491 -58.65728 17885 ft 306 kts 193°
2026-04-27 20:37 -33.53588 -58.66053 17482 ft 302 kts 193°
2026-04-27 20:37 -33.55670 -58.66377 17077 ft 300 kts 193°
2026-04-27 20:38 -33.57732 -58.66696 16687 ft 298 kts 193°
2026-04-27 20:38 -33.59780 -58.67016 16289 ft 296 kts 193°
2026-04-27 20:38 -33.61818 -58.67330 15905 ft 294 kts 193°
2026-04-27 20:38 -33.63840 -58.67647 15517 ft 292 kts 193°
2026-04-27 20:39 -33.65852 -58.67958 15131 ft 291 kts 193°
2026-04-27 20:39 -33.67854 -58.68270 14747 ft 289 kts 193°
2026-04-27 20:39 -33.69819 -58.68576 14372 ft 288 kts 193°
2026-04-27 20:39 -33.71805 -58.68884 13992 ft 287 kts 193°
2026-04-27 20:40 -33.73780 -58.69194 13588 ft 285 kts 192°
2026-04-27 20:40 -33.75750 -58.69498 13200 ft 284 kts 192°
2026-04-27 20:40 -33.77705 -58.69805 12825 ft 283 kts 192°
2026-04-27 20:40 -33.79656 -58.70108 12450 ft 282 kts 192°
2026-04-27 20:41 -33.81600 -58.70413 12083 ft 281 kts 192°
2026-04-27 20:41 -33.83543 -58.70715 11707 ft 281 kts 192°
2026-04-27 20:41 -33.85483 -58.71019 11331 ft 281 kts 192°
2026-04-27 20:41 -33.87400 -58.71319 10969 ft 281 kts 192°
2026-04-27 20:42 -33.89340 -58.71621 10592 ft 281 kts 192°
2026-04-27 20:42 -33.91273 -58.71925 10224 ft 281 kts 191°
2026-04-27 20:42 -33.93159 -58.72336 10090 ft 267 kts 202°
2026-04-27 20:42 -33.94737 -58.73392 10084 ft 255 kts 219°
2026-04-27 20:43 -33.95937 -58.74908 10080 ft 248 kts 235°
2026-04-27 20:43 -33.96690 -58.76758 10076 ft 246 kts 250°
2026-04-27 20:43 -33.96951 -58.78797 10083 ft 248 kts 266°
2026-04-27 20:43 -33.96688 -58.80857 10079 ft 252 kts 282°
2026-04-27 20:44 -33.95900 -58.82766 10086 ft 258 kts 299°
2026-04-27 20:44 -33.94627 -58.84323 10083 ft 267 kts 317°
2026-04-27 20:44 -33.92945 -58.85339 10078 ft 276 kts 336°
2026-04-27 20:44 -33.91020 -58.85633 10086 ft 285 kts 357°
2026-04-27 20:45 -33.89078 -58.85304 10086 ft 286 kts
2026-04-27 20:45 -33.87110 -58.84951 10083 ft 286 kts
2026-04-27 20:45 -33.85143 -58.84609 10076 ft 286 kts
2026-04-27 20:45 -33.83170 -58.84251 10071 ft 287 kts
2026-04-27 20:46 -33.81198 -58.83895 10087 ft 286 kts
2026-04-27 20:46 -33.79320 -58.83073 10080 ft 292 kts 29°
2026-04-27 20:46 -33.77795 -58.81451 10088 ft 295 kts 51°
2026-04-27 20:46 -33.76837 -58.79281 10091 ft 294 kts 73°
2026-04-27 20:47 -33.76575 -58.76869 10087 ft 290 kts 96°
2026-04-27 20:47 -33.77015 -58.74546 10077 ft 282 kts 118°
2026-04-27 20:47 -33.78053 -58.72597 10083 ft 273 kts 138°
2026-04-27 20:47 -33.79510 -58.71219 10085 ft 263 kts 157°
2026-04-27 20:48 -33.81175 -58.70498 10082 ft 255 kts 174°
2026-04-27 20:48 -33.82913 -58.70423 10085 ft 247 kts 191°
2026-04-27 20:48 -33.84602 -58.70745 10081 ft 246 kts 193°
2026-04-27 20:48 -33.86301 -58.71027 10084 ft 246 kts 192°
2026-04-27 20:49 -33.87997 -58.71323 10088 ft 246 kts 193°
2026-04-27 20:49 -33.89694 -58.71629 10088 ft 247 kts 193°
2026-04-27 20:49 -33.91394 -58.71928 10084 ft 247 kts 193°
2026-04-27 20:49 -33.93096 -58.72228 10085 ft 247 kts 193°
2026-04-27 20:50 -33.94801 -58.72525 10081 ft 247 kts 193°
2026-04-27 20:50 -33.96500 -58.72823 10088 ft 247 kts 193°
2026-04-27 20:50 -33.98148 -58.73109 10089 ft 246 kts 192°
2026-04-27 20:50 -33.99869 -58.72949 10082 ft 254 kts 171°
2026-04-27 20:51 -34.01545 -58.72217 9998 ft 263 kts 158°
2026-04-27 20:51 -34.03115 -58.71007 9786 ft 272 kts 152°
2026-04-27 20:51 -34.04695 -58.69699 9525 ft 278 kts 150°
2026-04-27 20:51 -34.06294 -58.68353 9269 ft 282 kts 150°
2026-04-27 20:52 -34.07923 -58.67012 9011 ft 284 kts 151°
2026-04-27 20:52 -34.09548 -58.65697 8762 ft 286 kts 150°
2026-04-27 20:52 -34.11201 -58.64328 8508 ft 287 kts 149°
2026-04-27 20:52 -34.12853 -58.62953 8262 ft 288 kts 149°
2026-04-27 20:53 -34.14505 -58.61584 8007 ft 289 kts 149°
2026-04-27 20:53 -34.16180 -58.60198 7545 ft 295 kts 149°
2026-04-27 20:53 -34.17855 -58.58809 6952 ft 284 kts 148°
2026-04-27 20:53 -34.19444 -58.57485 6337 ft 272 kts 148°
2026-04-27 20:54 -34.22476 -58.54971 5066 ft 259 kts 148°
2026-04-27 20:54 -34.23947 -58.53751 4418 ft 254 kts 148°
2026-04-27 20:54 -34.25350 -58.52579 3777 ft 235 kts 148°
2026-04-27 20:55 -34.26651 -58.51499 3342 ft 216 kts 148°
2026-04-27 20:55 -34.27829 -58.50515 3076 ft 197 kts 149°
2026-04-27 20:55 -34.28907 -58.49675 3006 ft 174 kts 154°
2026-04-27 20:55 -34.29928 -58.48933 2730 ft 173 kts 153°
2026-04-27 20:56 -34.30959 -58.48149 2343 ft 176 kts 153°
2026-04-27 20:56 -34.32003 -58.47372 2015 ft 174 kts 153°
2026-04-27 20:56 -34.33054 -58.46836 1996 ft 159 kts 175°
2026-04-27 20:56 -34.34135 -58.46813 1991 ft 154 kts 192°
2026-04-27 20:57 -34.35144 -58.47203 1992 ft 153 kts 212°
2026-04-27 20:57 -34.35992 -58.47971 1995 ft 153 kts 228°
2026-04-27 20:57 -34.36751 -58.48899 1995 ft 158 kts 225°
2026-04-27 20:57 -34.37561 -58.49804 2000 ft 158 kts 226°
2026-04-27 20:58 -34.38337 -58.50727 2001 ft 154 kts 226°
2026-04-27 20:58 -34.39103 -58.51624 2003 ft 152 kts 226°
2026-04-27 20:58 -34.39869 -58.52531 1747 ft 152 kts 226°
2026-04-27 20:58 -34.40589 -58.53391 1372 ft 138 kts 226°
2026-04-27 20:59 -34.41222 -58.54136 1157 ft 117 kts 225°
2026-04-27 20:59 -34.41807 -58.54787 928 ft 113 kts 226°
2026-04-27 20:59 -34.42357 -58.55440 693 ft 105 kts 226°
2026-04-27 20:59 -34.42848 -58.56025 586 ft 98 kts 225°
2026-04-27 21:00 -34.43337 -58.56588 450 ft 96 kts 225°
2026-04-27 21:00 -34.43820 -58.57139 324 ft 96 kts 229°
2026-04-27 21:00 -34.44287 -58.57712 205 ft 95 kts 228°
2026-04-27 21:00 -34.44748 -58.58252 94 ft 90 kts 224°
2026-04-27 21:01 -34.45171 -58.58754 25 ft 77 kts 223°
2026-04-27 21:01 -34.45462 -58.59096 23 ft 45 kts 224°
2026-04-27 21:01 -34.45636 -58.59300 24 ft 19 kts 217°
2026-04-27 21:01 -34.45704 -58.59289 23 ft 9 kts 148°
2026-04-27 21:02 -34.45764 -58.59247 23 ft 10 kts 151°
2026-04-27 21:02 -34.45827 -58.59202 23 ft 11 kts 147°
2026-04-27 21:02 -34.45841 -58.59163 23 ft 4 kts 60°
2026-04-27 21:02 -34.45818 -58.59116 23 ft 8 kts 63°
2026-04-27 21:03 -34.45786 -58.59038 24 ft 12 kts 63°
2026-04-27 21:03 -34.45747 -58.58945 24 ft 13 kts 63°
2026-04-27 21:03 -34.45704 -58.58847 23 ft 14 kts 62°
2026-04-27 21:03 -34.45658 -58.58738 23 ft 15 kts 62°
2026-04-27 21:04 -34.45609 -58.58624 23 ft 16 kts 63°
2026-04-27 21:04 -34.45556 -58.58502 24 ft 17 kts 63°
2026-04-27 21:04 -34.45503 -58.58376 25 ft 13 kts 63°
2026-04-27 21:04 -34.45474 -58.58312 23 ft 9 kts 64°
2026-04-27 21:05 -34.45454 -58.58256 23 ft 2 kts 101°
2026-04-27 21:05 -34.45463 -58.58244 23 ft 3 kts 150°
2026-04-27 21:05 -34.45486 -58.58229 23 ft 1 kts 131°
2026-04-27 21:05 -34.45487 -58.58224 23 ft 1 kts 86°
2026-04-27 21:06 -34.45486 -58.58220 23 ft 0 kts 63°